QPF
0.05 0.05 0.03 0.01 0.01 0.01 0.02 0.01 0.01 0.01 0.02 0.02 0.02 0.01 0.01 0.02 0.02 0.03 0.03 0.01 0.01 0.01 0.01 0.02 0.02 0.03 0.04 0.04 0.05 0.06 0.06 0.04 0.05 0.04 0.05 0.04 0.04 0.03 0.03 0.04 0.05 0.05 0.04 0.03
0.03 0.03 0.02 0.01 0.01 0.01 0.02 0.02 0.02 0.01 0.01 0.01 0.02 0.01 0.02 0.02 0.02 0.02 0.02 0.01 0.01 0.01 0.01 0.01 0.02 0.03 0.05 0.05 0.05 0.06 0.07 0.06 0.04 0.03 0.03 0.02 0.03 0.02 0.02 0.02 0.04 0.06 0.06 0.04
0.03 0.02 0.01 0.02 0.02 0.01 0.01 0.01 0.02 0.01 0.01 0.01 0.01 0.01 0.01 0.01 0.01 0.01 0.01 0.01 0.02 0.02 0.01 0.01 0.01 0.03 0.06 0.07 0.06 0.06 0.06 0.05 0.04 0.04 0.05 0.04 0.03 0.02 0.01 0.01 0.02 0.05 0.07 0.07
0.02 0.01 0.01 0.02 0.02 0.02 0.01 0.01 0.01 0.01 0.01 0.01 0.01 0.01 0.01 0.01 0.01 0.01 0.01 0.01 0.02 0.02 0.01 0.01 0.01 0.02 0.03 0.05 0.05 0.07 0.08 0.06 0.03 0.03 0.06 0.07 0.06 0.04 0.02 0.01 0.02 0.04 0.06 0.07
0.02 0.01 0.02 0.02 0.01 0.01 0.01 0.01 0.01 0.01 0.02 0.02 0.01 0.01 0.02 0.01 0.01 0.01 0.02 0.02 0.01 0.01 0.01 0.00 0.00 0.01 0.02 0.03 0.04 0.04 0.06 0.08 0.04 0.03 0.04 0.06 0.08 0.07 0.06 0.04 0.03 0.03 0.04 0.06
0.01 0.01 0.02 0.01 0.01 0.01 0.01 0.01 0.02 0.02 0.03 0.03 0.01 0.02 0.02 0.01 0.01 0.01 0.02 0.03 0.01 0.01 0.01 0.00 0.00 0.00 0.01 0.02 0.03 0.03 0.03 0.05 0.05 0.03 0.03 0.04 0.05 0.06 0.08 0.08 0.07 0.05 0.04 0.05
0.02 0.02 0.01 0.02 0.02 0.02 0.02 0.03 0.04 0.04 0.04 0.03 0.01 0.01 0.02 0.01 0.00 0.00 0.01 0.02 0.01 0.01 0.01 0.01 0.00 0.00 0.01 0.01 0.02 0.02 0.02 0.02 0.03 0.03 0.02 0.03 0.03 0.04 0.06 0.08 0.08 0.08 0.07 0.05
0.03 0.03 0.02 0.02 0.02 0.03 0.03 0.04 0.05 0.05 0.03 0.02 0.01 0.02 0.01 0.01 0.00 0.00 0.00 0.02 0.02 0.01 0.01 0.01 0.00 0.01 0.01 0.01 0.01 0.02 0.02 0.02 0.02 0.02 0.01 0.02 0.02 0.03 0.04 0.06 0.06 0.07 0.07 0.06
0.02 0.02 0.02 0.01 0.02 0.02 0.04 0.04 0.05 0.06 0.04 0.03 0.01 0.01 0.01 0.00 0.00 0.00 0.01 0.01 0.02 0.01 0.01 0.01 0.01 0.01 0.01 0.00 0.01 0.01 0.01 0.01 0.02 0.02 0.01 0.01 0.02 0.02 0.02 0.02 0.03 0.04 0.05 0.05
0.02 0.02 0.01 0.01 0.01 0.02 0.03 0.03 0.04 0.05 0.05 0.03 0.01 0.01 0.01 0.01 0.01 0.00 0.01 0.01 0.02 0.01 0.01 0.01 0.02 0.02 0.01 0.01 0.01 0.01 0.01 0.01 0.01 0.01 0.01 0.01 0.01 0.01 0.01 0.01 0.01 0.02 0.02 0.04
0.02 0.02 0.01 0.01 0.01 0.01 0.02 0.02 0.03 0.04 0.03 0.03 0.02 0.02 0.01 0.01 0.00 0.01 0.01 0.01 0.02 0.02 0.01 0.01 0.01 0.02 0.02 0.01 0.01 0.01 0.01 0.01 0.01 0.01 0.01 0.01 0.00 0.00 0.00 0.00 0.01 0.01 0.01 0.02
0.03 0.03 0.02 0.01 0.01 0.00 0.01 0.02 0.03 0.04 0.03 0.02 0.02 0.01 0.01 0.01 0.01 0.00 0.01 0.01 0.01 0.01 0.01 0.01 0.01 0.02 0.02 0.02 0.02 0.01 0.01 0.01 0.01 0.01 0.01 0.00 0.00 0.00 0.00 0.00 0.00 0.01 0.01 0.01
0.02 0.04 0.03 0.02 0.02 0.01 0.01 0.01 0.01 0.03 0.04 0.03 0.02 0.01 0.01 0.01 0.00 0.00 0.00 0.01 0.01 0.00 0.00 0.01 0.01 0.01 0.03 0.03 0.03 0.02 0.01 0.01 0.01 0.01 0.00 0.00 0.00 0.00 0.00 0.00 0.00 0.01 0.01 0.01
0.02 0.03 0.02 0.02 0.02 0.01 0.01 0.01 0.01 0.02 0.03 0.02 0.01 0.01 0.01 0.01 0.01 0.00 0.00 0.01 0.00 0.00 0.00 0.01 0.01 0.01 0.03 0.03 0.03 0.03 0.03 0.01 0.01 0.01 0.01 0.00 0.00 0.00 0.00 0.00 0.00 0.01 0.01 0.01
0.03 0.02 0.01 0.00 0.00 0.00 0.00 0.00 0.00 0.01 0.01 0.02 0.01 0.01 0.01 0.01 0.01 0.01 0.01 0.01 0.00 0.01 0.01 0.01 0.01 0.01 0.02 0.03 0.03 0.03 0.03 0.03 0.03 0.02 0.01 0.01 0.00 0.00 0.01 0.01 0.01 0.01 0.01 0.01
0.03 0.02 0.01 0.00 0.00 0.00 0.00 0.00 0.00 0.00 0.00 0.00 0.00 0.01 0.01 0.01 0.01 0.01 0.01 0.01 0.01 0.01 0.01 0.01 0.01 0.01 0.01 0.02 0.03 0.03 0.04 0.04 0.03 0.02 0.02 0.02 0.01 0.02 0.01 0.01 0.01 0.02 0.02 0.02
0.02 0.02 0.02 0.01 0.00 0.01 0.01 0.00 0.00 0.00 0.00 0.00 0.01 0.01 0.01 0.01 0.01 0.01 0.01 0.01 0.01 0.01 0.01 0.01 0.01 0.01 0.01 0.01 0.02 0.02 0.03 0.03 0.03 0.03 0.03 0.03 0.03 0.03 0.02 0.01 0.02 0.01 0.01 0.02
0.01 0.02 0.03 0.02 0.01 0.01 0.00 0.00 0.00 0.00 0.00 0.00 0.00 0.01 0.01 0.01 0.01 0.01 0.01 0.01 0.01 0.01 0.01 0.01 0.01 0.01 0.01 0.01 0.01 0.02 0.02 0.02 0.02 0.03 0.03 0.03 0.03 0.03 0.03 0.02 0.02 0.02 0.02 0.02
0.01 0.02 0.03 0.03 0.02 0.01 0.00 0.00 0.00 0.00 0.00 0.00 0.00 0.00 0.00 0.00 0.00 0.01 0.01 0.01 0.01 0.01 0.01 0.01 0.01 0.01 0.01 0.01 0.01 0.01 0.01 0.01 0.01 0.02 0.02 0.03 0.03 0.03 0.03 0.02 0.02 0.02 0.02 0.01
0.01 0.03 0.04 0.03 0.02 0.01 0.00 0.00 0.00 0.00 0.00 0.00 0.00 0.00 0.00 0.00 0.01 0.01 0.01 0.01 0.01 0.01 0.01 0.01 0.01 0.01 0.01 0.01 0.01 0.01 0.01 0.01 0.01 0.01 0.01 0.02 0.02 0.02 0.02 0.02 0.01 0.01 0.01 0.01
0.01 0.04 0.04 0.03 0.02 0.01 0.00 0.00 0.00 0.00 0.01 0.00 0.00 0.00 0.00 0.01 0.01 0.01 0.00 0.00 0.01 0.00 0.00 0.01 0.01 0.01 0.01 0.01 0.01 0.01 0.01 0.01 0.01 0.01 0.01 0.01 0.01 0.01 0.01 0.01 0.01 0.01 0.01 0.01
0.01 0.02 0.02 0.02 0.03 0.01 0.00 0.00 0.00 0.00 0.00 0.00 0.00 0.00 0.00 0.00 0.00 0.00 0.00 0.00 0.00 0.00 0.00 0.01 0.01 0.01 0.01 0.01 0.01 0.01 0.01 0.01 0.01 0.01 0.01 0.01 0.01 0.01 0.01 0.01 0.01 0.01 0.01 0.01
0.00 0.01 0.01 0.01 0.01 0.00 0.00 0.00 0.00 0.00 0.00 0.00 0.00 0.00 0.00 0.00 0.00 0.00 0.00 0.00 0.00 0.00 0.01 0.01 0.01 0.01 0.01 0.01 0.01 0.01 0.01 0.01 0.01 0.02 0.01 0.01 0.01 0.01 0.01 0.01 0.01 0.01 0.01 0.01
0.01 0.00 0.01 0.01 0.01 0.00 0.00 0.00 0.00 0.00 0.00 0.00 0.00 0.00 0.00 0.00 0.00 0.00 0.00 0.00 0.00 0.01 0.01 0.01 0.01 0.01 0.01 0.01 0.01 0.01 0.01 0.01 0.02 0.02 0.01 0.01 0.02 0.01 0.01 0.01 0.01 0.01 0.01 0.01
0.01 0.01 0.01 0.01 0.01 0.01 0.00 0.00 0.00 0.00 0.00 0.00 0.00 0.00 0.00 0.00 0.00 0.00 0.00 0.00 0.00 0.01 0.01 0.01 0.01 0.01 0.01 0.01 0.01 0.01 0.02 0.02 0.02 0.02 0.02 0.02 0.02 0.01 0.01 0.01 0.01 0.01 0.01 0.01
0.01 0.01 0.01 0.01 0.00 0.00 0.00 0.00 0.00 0.00 0.00 0.00 0.00 0.00 0.00 0.00 0.00 0.00 0.00 0.00 0.00 0.01 0.01 0.01 0.01 0.01 0.01 0.01 0.01 0.01 0.02 0.02 0.02 0.02 0.02 0.02 0.01 0.01 0.01 0.01 0.02 0.02 0.02 0.02
MSLP
1004.36 1005.03 1005.57 1005.99 1006.32 1006.57 1006.77 1006.92 1007.01 1007.04 1006.98 1006.82 1006.56 1006.19 1005.75 1005.26 1004.77 1004.30 1003.89 1003.54 1003.27 1003.08 1002.94 1002.88 1002.88 1002.96 1003.13 1003.41 1003.81 1004.33 1004.95 1005.64 1006.35 1007.04 1007.66 1008.20 1008.64 1009.00 1009.29 1009.57 1009.86 1010.20 1010.61 1011.08
1003.86 1004.46 1004.95 1005.37 1005.73 1006.06 1006.36 1006.62 1006.81 1006.90 1006.86 1006.68 1006.34 1005.88 1005.34 1004.76 1004.21 1003.72 1003.33 1003.05 1002.86 1002.76 1002.72 1002.72 1002.75 1002.84 1003.01 1003.27 1003.66 1004.17 1004.80 1005.51 1006.25 1006.98 1007.64 1008.20 1008.64 1008.98 1009.24 1009.47 1009.72 1010.02 1010.41 1010.87
1003.19 1003.75 1004.24 1004.69 1005.13 1005.58 1006.02 1006.42 1006.71 1006.86 1006.83 1006.58 1006.14 1005.55 1004.87 1004.18 1003.56 1003.07 1002.73 1002.54 1002.49 1002.52 1002.61 1002.71 1002.81 1002.92 1003.08 1003.31 1003.65 1004.12 1004.72 1005.42 1006.18 1006.92 1007.60 1008.18 1008.63 1008.96 1009.20 1009.40 1009.62 1009.90 1010.25 1010.70
1002.35 1002.88 1003.38 1003.91 1004.47 1005.08 1005.69 1006.24 1006.66 1006.87 1006.82 1006.50 1005.94 1005.19 1004.36 1003.55 1002.86 1002.36 1002.09 1002.03 1002.13 1002.35 1002.60 1002.84 1003.03 1003.19 1003.34 1003.53 1003.81 1004.21 1004.75 1005.41 1006.14 1006.87 1007.56 1008.14 1008.59 1008.92 1009.16 1009.34 1009.54 1009.79 1010.12 1010.55
1001.36 1001.87 1002.40 1003.01 1003.71 1004.49 1005.29 1006.01 1006.55 1006.83 1006.77 1006.38 1005.69 1004.80 1003.82 1002.89 1002.14 1001.66 1001.46 1001.54 1001.83 1002.25 1002.69 1003.09 1003.40 1003.61 1003.77 1003.92 1004.13 1004.44 1004.90 1005.47 1006.14 1006.84 1007.50 1008.08 1008.53 1008.86 1009.10 1009.28 1009.46 1009.69 1010.00 1010.40
1000.31 1000.78 1001.33 1002.01 1002.84 1003.78 1004.75 1005.64 1006.31 1006.66 1006.62 1006.18 1005.39 1004.37 1003.27 1002.26 1001.47 1001.01 1000.90 1001.13 1001.60 1002.22 1002.87 1003.44 1003.88 1004.17 1004.34 1004.46 1004.59 1004.81 1005.16 1005.63 1006.21 1006.84 1007.46 1008.00 1008.45 1008.78 1009.01 1009.19 1009.36 1009.58 1009.86 1010.23
999.31 999.71 1000.25 1000.97 1001.89 1002.95 1004.07 1005.10 1005.88 1006.31 1006.30 1005.85 1005.02 1003.93 1002.76 1001.70 1000.90 1000.48 1000.46 1000.82 1001.48 1002.29 1003.12 1003.86 1004.43 1004.80 1005.00 1005.10 1005.17 1005.29 1005.53 1005.89 1006.36 1006.90 1007.44 1007.95 1008.36 1008.68 1008.90 1009.08 1009.25 1009.45 1009.71 1010.05
998.48 998.79 999.27 999.98 1000.92 1002.05 1003.25 1004.37 1005.25 1005.75 1005.80 1005.38 1004.55 1003.47 1002.30 1001.24 1000.47 1000.10 1000.18 1000.66 1001.46 1002.43 1003.42 1004.31 1005.00 1005.45 1005.69 1005.78 1005.81 1005.85 1005.98 1006.23 1006.59 1007.02 1007.49 1007.93 1008.30 1008.59 1008.80 1008.97 1009.13 1009.31 1009.56 1009.87
997.94 998.14 998.52 999.15 1000.05 1001.15 1002.36 1003.51 1004.44 1005.00 1005.11 1004.76 1004.00 1002.98 1001.87 1000.88 1000.18 999.89 1000.05 1000.63 1001.54 1002.62 1003.74 1004.74 1005.52 1006.05 1006.34 1006.45 1006.45 1006.44 1006.49 1006.64 1006.90 1007.23 1007.61 1007.98 1008.30 1008.55 1008.74 1008.89 1009.03 1009.20 1009.42 1009.70
997.76 997.82 998.07 998.57 999.34 1000.35 1001.48 1002.58 1003.50 1004.09 1004.26 1004.00 1003.36 1002.46 1001.48 1000.61 1000.02 999.82 1000.07 1000.72 1001.69 1002.85 1004.04 1005.11 1005.97 1006.57 1006.92 1007.06 1007.07 1007.04 1007.04 1007.12 1007.30 1007.54 1007.84 1008.13 1008.39 1008.60 1008.75 1008.88 1009.00 1009.14 1009.34 1009.58
997.92 997.86 997.96 998.29 998.89 999.71 1000.68 1001.66 1002.50 1003.07 1003.29 1003.12 1002.62 1001.89 1001.09 1000.38 999.94 999.85 1000.17 1000.88 1001.89 1003.08 1004.30 1005.41 1006.32 1006.98 1007.39 1007.59 1007.64 1007.63 1007.62 1007.67 1007.79 1007.97 1008.19 1008.42 1008.61 1008.77 1008.89 1008.98 1009.07 1009.19 1009.35 1009.56
998.34 998.18 998.14 998.28 998.66 999.25 999.99 1000.78 1001.49 1002.00 1002.23 1002.15 1001.80 1001.26 1000.66 1000.15 999.88 999.92 1000.33 1001.08 1002.11 1003.30 1004.52 1005.65 1006.60 1007.32 1007.80 1008.07 1008.19 1008.23 1008.25 1008.30 1008.39 1008.53 1008.69 1008.85 1008.99 1009.10 1009.17 1009.23 1009.29 1009.37 1009.49 1009.66
998.86 998.64 998.48 998.45 998.59 998.93 999.41 999.96 1000.49 1000.90 1001.11 1001.11 1000.90 1000.56 1000.18 999.90 999.81 1000.00 1000.51 1001.31 1002.35 1003.53 1004.74 1005.88 1006.86 1007.63 1008.18 1008.53 1008.74 1008.85 1008.93 1009.00 1009.09 1009.20 1009.32 1009.44 1009.53 1009.59 1009.62 1009.63 1009.65 1009.70 1009.78 1009.90
999.31 999.08 998.84 998.66 998.60 998.68 998.90 999.21 999.54 999.82 1000.00 1000.05 999.98 999.83 999.69 999.63 999.75 1000.10 1000.72 1001.58 1002.64 1003.81 1005.02 1006.15 1007.15 1007.97 1008.60 1009.04 1009.34 1009.53 1009.66 1009.77 1009.88 1009.98 1010.07 1010.14 1010.19 1010.21 1010.20 1010.18 1010.16 1010.16 1010.20 1010.27
999.55 999.34 999.06 998.79 998.57 998.44 998.43 998.52 998.66 998.82 998.96 999.05 999.11 999.15 999.22 999.40 999.73 1000.26 1001.00 1001.93 1003.02 1004.21 1005.41 1006.54 1007.56 1008.42 1009.10 1009.62 1010.00 1010.27 1010.46 1010.60 1010.72 1010.81 1010.88 1010.92 1010.94 1010.92 1010.88 1010.82 1010.77 1010.73 1010.72 1010.74
999.50 999.34 999.07 998.75 998.43 998.17 997.98 997.89 997.89 997.95 998.06 998.21 998.38 998.60 998.89 999.29 999.83 1000.54 1001.41 1002.43 1003.56 1004.76 1005.96 1007.10 1008.12 1009.00 1009.73 1010.30 1010.73 1011.04 1011.27 1011.43 1011.55 1011.64 1011.69 1011.70 1011.69 1011.65 1011.58 1011.50 1011.42 1011.35 1011.30 1011.27
999.18 999.07 998.85 998.54 998.19 997.86 997.58 997.39 997.30 997.31 997.42 997.62 997.92 998.30 998.79 999.40 1000.14 1001.01 1002.01 1003.11 1004.29 1005.51 1006.70 1007.82 1008.84 1009.72 1010.46 1011.04 1011.49 1011.82 1012.05 1012.22 1012.32 1012.38 1012.41 1012.41 1012.37 1012.31 1012.24 1012.15 1012.06 1011.97 1011.89 1011.81
998.67 998.63 998.47 998.22 997.90 997.58 997.29 997.08 996.98 997.00 997.15 997.43 997.84 998.38 999.03 999.82 1000.72 1001.73 1002.84 1004.01 1005.22 1006.44 1007.61 1008.71 1009.69 1010.54 1011.25 1011.81 1012.23 1012.54 1012.75 1012.88 1012.95 1012.98 1012.99 1012.97 1012.92 1012.86 1012.79 1012.71 1012.62 1012.52 1012.42 1012.32
998.15 998.17 998.09 997.92 997.70 997.46 997.24 997.08 997.03 997.11 997.33 997.70 998.22 998.88 999.67 1000.59 1001.61 1002.71 1003.88 1005.09 1006.31 1007.50 1008.63 1009.67 1010.60 1011.38 1012.03 1012.53 1012.90 1013.15 1013.30 1013.38 1013.41 1013.41 1013.39 1013.35 1013.31 1013.26 1013.20 1013.14 1013.06 1012.98 1012.87 1012.75
997.80 997.87 997.87 997.82 997.72 997.60 997.50 997.45 997.50 997.67 997.98 998.45 999.06 999.81 1000.69 1001.68 1002.76 1003.90 1005.09 1006.29 1007.47 1008.61 1009.67 1010.63 1011.47 1012.17 1012.73 1013.15 1013.44 1013.61 1013.70 1013.72 1013.70 1013.66 1013.62 1013.57 1013.54 1013.51 1013.48 1013.45 1013.40 1013.33 1013.23 1013.10
997.78 997.88 997.98 998.04 998.08 998.11 998.15 998.24 998.41 998.69 999.09 999.63 1000.30 1001.10 1002.01 1003.01 1004.09 1005.22 1006.36 1007.50 1008.61 1009.66 1010.63 1011.49 1012.23 1012.83 1013.30 1013.62 1013.83 1013.94 1013.95 1013.92 1013.85 1013.78 1013.72 1013.68 1013.66 1013.65 1013.65 1013.65 1013.63 1013.58 1013.49 1013.36
998.16 998.31 998.48 998.66 998.83 999.00 999.18 999.41 999.70 1000.07 1000.54 1001.13 1001.82 1002.62 1003.50 1004.47 1005.48 1006.53 1007.58 1008.62 1009.62 1010.56 1011.42 1012.18 1012.81 1013.32 1013.70 1013.95 1014.09 1014.13 1014.10 1014.02 1013.93 1013.84 1013.77 1013.73 1013.72 1013.73 1013.76 1013.79 1013.79 1013.76 1013.68 1013.55
998.97 999.16 999.40 999.66 999.94 1000.23 1000.53 1000.87 1001.25 1001.69 1002.20 1002.79 1003.46 1004.21 1005.03 1005.89 1006.80 1007.72 1008.65 1009.56 1010.43 1011.25 1012.00 1012.66 1013.20 1013.64 1013.96 1014.15 1014.25 1014.25 1014.19 1014.10 1013.98 1013.89 1013.81 1013.78 1013.78 1013.81 1013.85 1013.89 1013.90 1013.88 1013.80 1013.67
1000.13 1000.36 1000.65 1000.98 1001.34 1001.70 1002.08 1002.48 1002.91 1003.38 1003.89 1004.45 1005.07 1005.73 1006.43 1007.17 1007.94 1008.71 1009.49 1010.26 1011.00 1011.70 1012.35 1012.92 1013.41 1013.79 1014.08 1014.26 1014.34 1014.34 1014.28 1014.18 1014.07 1013.98 1013.91 1013.87 1013.87 1013.90 1013.94 1013.97 1013.98 1013.94 1013.86 1013.72
1001.54 1001.81 1002.13 1002.49 1002.88 1003.27 1003.68 1004.10 1004.53 1004.98 1005.46 1005.96 1006.49 1007.04 1007.62 1008.22 1008.83 1009.46 1010.09 1010.72 1011.34 1011.94 1012.50 1013.02 1013.46 1013.83 1014.10 1014.29 1014.39 1014.41 1014.37 1014.29 1014.20 1014.11 1014.05 1014.00 1013.99 1014.00 1014.01 1014.02 1014.00 1013.94 1013.83 1013.67
1003.06 1003.35 1003.69 1004.05 1004.42 1004.80 1005.19 1005.58 1005.97 1006.38 1006.79 1007.22 1007.65 1008.10 1008.55 1009.01 1009.49 1009.98 1010.48 1010.99 1011.50 1012.02 1012.52 1012.99 1013.41 1013.78 1014.07 1014.28 1014.41 1014.47 1014.46 1014.42 1014.34 1014.26 1014.19 1014.14 1014.10 1014.07 1014.05 1014.01 1013.95 1013.86 1013.71 1013.53
Thickness
5563 5555 5550 5555 5558 5560 5560 5558 5560 5566 5568 5563 5564 5570 5576 5579 5577 5576 5575 5575 5575 5575 5576 5576 5575 5573 5572 5572 5572 5572 5571 5572 5572 5572 5571 5572 5573 5575 5576 5578 5580 5581 5582 5583
5551 5545 5551 5554 5555 5553 5551 5549 5552 5556 5559 5555 5554 5560 5569 5571 5570 5569 5569 5567 5566 5565 5565 5565 5564 5563 5562 5561 5561 5561 5561 5561 5561 5560 5560 5560 5562 5563 5565 5566 5568 5570 5571 5572
5543 5542 5547 5547 5544 5542 5542 5540 5539 5539 5543 5546 5543 5549 5561 5566 5565 5563 5562 5560 5558 5557 5555 5554 5553 5552 5551 5550 5550 5552 5551 5551 5551 5550 5549 5549 5550 5551 5553 5554 5556 5558 5560 5561
5537 5538 5537 5536 5533 5531 5530 5537 5534 5531 5524 5526 5533 5528 5552 5556 5554 5553 5550 5549 5547 5545 5544 5543 5542 5541 5541 5541 5540 5540 5540 5541 5541 5540 5539 5538 5538 5539 5541 5543 5545 5547 5548 5550
5528 5528 5526 5526 5526 5526 5524 5528 5525 5522 5517 5513 5524 5517 5538 5548 5544 5543 5540 5539 5536 5535 5534 5533 5532 5531 5532 5531 5530 5529 5529 5529 5529 5529 5528 5528 5528 5529 5531 5533 5534 5535 5537 5538
5522 5522 5519 5519 5520 5521 5518 5518 5517 5513 5508 5502 5520 5516 5528 5535 5538 5537 5533 5530 5527 5526 5525 5524 5523 5523 5521 5520 5520 5519 5519 5518 5519 5519 5519 5519 5519 5520 5521 5522 5523 5524 5526 5527
5515 5515 5513 5512 5508 5509 5507 5501 5497 5498 5497 5507 5522 5516 5522 5529 5532 5530 5525 5521 5518 5516 5515 5513 5513 5512 5511 5510 5510 5509 5508 5508 5508 5509 5509 5509 5509 5510 5511 5512 5513 5514 5515 5516
5502 5503 5503 5503 5500 5495 5497 5496 5489 5489 5498 5508 5509 5508 5517 5523 5522 5521 5518 5514 5510 5507 5505 5504 5503 5501 5500 5500 5500 5499 5498 5498 5498 5498 5498 5499 5500 5501 5502 5502 5503 5505 5505 5506
5491 5493 5497 5496 5495 5492 5490 5485 5488 5481 5481 5482 5500 5512 5511 5515 5511 5509 5506 5503 5499 5497 5496 5494 5493 5492 5491 5490 5489 5489 5488 5488 5488 5489 5489 5489 5490 5491 5492 5493 5494 5495 5496 5496
5483 5476 5487 5488 5486 5483 5483 5482 5475 5472 5475 5484 5502 5505 5501 5497 5498 5497 5495 5491 5488 5487 5485 5484 5483 5482 5481 5480 5479 5479 5479 5478 5478 5478 5479 5480 5480 5481 5482 5484 5485 5485 5486 5487
5477 5467 5474 5477 5472 5472 5472 5471 5470 5470 5472 5474 5480 5494 5500 5495 5492 5488 5486 5483 5482 5479 5476 5475 5474 5473 5472 5471 5470 5469 5469 5468 5468 5469 5469 5470 5471 5472 5473 5474 5475 5476 5477 5477
5469 5463 5463 5474 5476 5473 5471 5468 5462 5458 5462 5468 5467 5479 5492 5488 5486 5483 5479 5477 5475 5473 5469 5467 5466 5465 5463 5462 5461 5460 5460 5459 5459 5460 5460 5461 5462 5462 5463 5465 5466 5467 5468 5468
5459 5451 5452 5464 5461 5457 5458 5461 5457 5450 5450 5455 5459 5472 5481 5479 5478 5476 5472 5470 5468 5465 5462 5459 5457 5455 5454 5453 5452 5452 5452 5451 5451 5451 5451 5452 5452 5453 5454 5455 5457 5457 5458 5459
5456 5443 5445 5454 5459 5451 5446 5452 5450 5442 5441 5449 5461 5468 5473 5470 5467 5466 5463 5462 5460 5457 5455 5451 5448 5446 5445 5444 5443 5443 5443 5443 5443 5443 5443 5443 5444 5444 5445 5447 5448 5448 5449 5450
5443 5438 5440 5446 5453 5452 5448 5447 5445 5440 5444 5443 5457 5461 5466 5464 5461 5459 5456 5454 5453 5450 5447 5444 5441 5438 5437 5436 5435 5434 5433 5433 5434 5434 5434 5434 5435 5436 5437 5437 5438 5439 5440 5441
5433 5430 5433 5436 5446 5446 5445 5448 5447 5443 5444 5445 5450 5455 5465 5459 5455 5452 5449 5447 5445 5442 5440 5437 5434 5431 5429 5428 5427 5425 5425 5425 5425 5424 5425 5425 5426 5427 5427 5428 5428 5429 5430 5431
5425 5419 5424 5435 5442 5436 5438 5448 5446 5445 5446 5444 5444 5453 5457 5451 5448 5445 5442 5440 5438 5435 5432 5429 5426 5423 5421 5420 5419 5417 5416 5416 5416 5416 5416 5416 5417 5418 5418 5419 5419 5420 5421 5421
5418 5415 5416 5421 5425 5423 5453 5458 5455 5449 5447 5446 5446 5449 5448 5445 5443 5441 5438 5434 5432 5429 5424 5421 5418 5416 5415 5413 5411 5410 5409 5408 5408 5408 5409 5409 5409 5409 5409 5409 5410 5410 5412 5412
5418 5412 5413 5413 5419 5437 5451 5451 5445 5438 5439 5444 5442 5444 5441 5437 5434 5432 5432 5428 5424 5421 5417 5414 5411 5409 5407 5406 5404 5403 5402 5401 5401 5401 5401 5401 5401 5401 5401 5401 5401 5402 5403 5403
5411 5407 5406 5412 5415 5426 5448 5444 5443 5436 5431 5441 5439 5436 5432 5426 5419 5424 5423 5419 5416 5414 5411 5407 5405 5402 5401 5399 5398 5396 5394 5393 5393 5394 5394 5394 5394 5393 5393 5392 5393 5393 5394 5395
5403 5404 5405 5409 5412 5428 5439 5434 5433 5424 5432 5436 5433 5429 5423 5418 5415 5414 5413 5411 5408 5406 5403 5401 5398 5395 5394 5393 5391 5388 5387 5386 5386 5386 5386 5386 5386 5385 5385 5385 5385 5385 5386 5386
5410 5407 5405 5407 5408 5424 5431 5424 5424 5427 5430 5428 5425 5421 5416 5412 5409 5406 5404 5401 5399 5397 5397 5394 5390 5388 5386 5385 5383 5382 5380 5380 5379 5379 5379 5378 5378 5378 5378 5377 5377 5377 5377 5377
5417 5419 5418 5418 5425 5433 5428 5426 5426 5424 5421 5420 5416 5413 5409 5405 5402 5399 5396 5394 5392 5391 5389 5387 5383 5380 5379 5377 5376 5374 5374 5373 5372 5371 5371 5370 5370 5370 5370 5369 5369 5369 5369 5369
5417 5416 5412 5411 5422 5428 5424 5422 5419 5417 5414 5411 5408 5405 5401 5398 5396 5392 5390 5388 5386 5384 5381 5379 5376 5373 5371 5370 5369 5367 5367 5366 5365 5364 5363 5362 5362 5362 5362 5362 5362 5362 5362 5362
5417 5406 5404 5404 5416 5419 5421 5416 5413 5409 5407 5404 5401 5397 5394 5391 5389 5386 5383 5381 5379 5378 5375 5371 5368 5366 5364 5363 5362 5361 5360 5359 5357 5356 5356 5355 5355 5355 5354 5354 5354 5355 5355 5355
5412 5406 5403 5411 5417 5412 5414 5412 5407 5402 5399 5396 5392 5389 5388 5385 5382 5380 5378 5376 5374 5371 5368 5365 5362 5359 5357 5356 5354 5354 5353 5351 5350 5350 5349 5349 5348 5348 5348 5347 5347 5348 5349 5350